Change the Weather History Date:

Saturday, November 10, 2012

  Actual Average Record
Temperature  
Mean Temperature 30 °F -  
Max Temperature 36 °F 41 °F 55 °F (2007)
Min Temperature 23 °F 29 °F 23 °F (2012)
Degree Days  
Heating Degree Days 35    
Moisture  
Dew Point 16 °F    
Average Humidity 52    
Maximum Humidity 64    
Minimum Humidity 29    
Precipitation  
Precipitation 0.00 in 0.04 in - ()
Sea Level Pressure  
Sea Level Pressure 30.17 in    
Wind  
Wind Speed 9 mph ()    
Max Wind Speed 16 mph    
Max Gust Speed -    
Visibility 15.0 miles    
Events Snow    
Averages and records for this station are not official NWS values.
T = Trace of Precipitation, MM = Missing Value Source: Averaged Metar Reports

Daily Weather History Graph

Daily Weather History Graph

Search for Another Location

Airport or City:

Trip Planner

Search our weather history database for the weather conditions in past years. The results will help you decide how hot, cold, wet, or windy it might be!

Date:

Astronomy

Nov. 10, 2012 Rise Set
Actual Time 7:02 AM PST 4:21 PM PST
Civil Twilight 6:27 AM PST 4:56 PM PST
Nautical Twilight 5:49 AM PST 5:34 PM PST
Astronomical Twilight 5:11 AM PST 6:12 PM PST
Moon 2:55 AM PST (11/10) 2:26 PM PST (11/10)
Length of Visible Light 10h 28m
Length of Day
9h 19m
Waning Crescent, 13% of the Moon is Illuminated
Nov 10
Waning Crescent
Nov 13
New
Nov 20
First Quarter
Nov 28
Full
Dec 6
Last Quarter

Hourly Weather History & Observations

Time (PST) Temp. Windchill Dew Point Humidity Pressure Visibility Wind Dir Wind Speed Gust Speed Precip Events Conditions
12:00 AM 32.0 °F 24.8 °F 19.4 °F 60% 30.05 in 15.0 mi North 8.1 mph - N/A Snow Light Snow Showers
12:25 AM 32.0 °F 25.6 °F 19.4 °F 60% 30.05 in 15.0 mi North 6.9 mph - N/A   Overcast
1:00 AM 32.0 °F 23.6 °F 17.6 °F 55% 30.06 in 15.0 mi North 10.4 mph - N/A   Overcast
2:00 AM 32.0 °F 23.0 °F 17.6 °F 55% 30.08 in 15.0 mi North 11.5 mph - N/A   Overcast
3:00 AM 30.2 °F 21.9 °F 19.4 °F 64% 30.09 in 15.0 mi North 9.2 mph - N/A   Overcast
4:00 AM 31 °F - 18 °F 46% 30.09 in 15 mi North 9.2 mph - -   Partly Cloudy
4:00 AM 30.2 °F 21.3 °F 17.6 °F 60% 30.09 in 15.0 mi NNE 10.4 mph - N/A   Overcast
5:00 AM 30.2 °F 20.2 °F 17.6 °F 60% 30.11 in 15.0 mi NNW 12.7 mph - N/A   Overcast
6:00 AM 30.2 °F 21.3 °F 15.8 °F 55% 30.12 in 15.0 mi North 10.4 mph - N/A   Overcast
7:00 AM 28.4 °F 19.7 °F 15.8 °F 59% 30.14 in 15.0 mi North 9.2 mph - N/A   Overcast
8:00 AM 30.2 °F 23.4 °F 15.8 °F 55% 30.16 in 15.0 mi NNW 6.9 mph - N/A   Mostly Cloudy
9:00 AM 32.0 °F 25.6 °F 14.0 °F 48% 30.17 in 15.0 mi North 6.9 mph - N/A   Mostly Cloudy
10:00 AM 33 °F - 13 °F 29% 30.18 in 15 mi North 15.0 mph - -   Mostly Cloudy
10:00 AM 33.8 °F 23.5 °F 12.2 °F 41% 30.18 in 15.0 mi North 16.1 mph - N/A   Mostly Cloudy
11:00 AM 35.6 °F 27.5 °F 17.6 °F 48% 30.18 in 15.0 mi North 11.5 mph - N/A   Mostly Cloudy
12:00 PM 35.6 °F 28.0 °F 17.6 °F 48% 30.18 in 15.0 mi NNE 10.4 mph - N/A   Scattered Clouds
1:00 PM 37.4 °F 29.3 °F 14.0 °F 38% 30.19 in 15.0 mi North 12.7 mph - N/A   Scattered Clouds
2:00 PM 35.6 °F 28.0 °F 17.6 °F 48% 30.19 in 15.0 mi North 10.4 mph - N/A   Partly Cloudy
3:00 PM 35.6 °F 27.5 °F 15.8 °F 44% 30.20 in 15.0 mi North 11.5 mph - N/A   Partly Cloudy
4:00 PM 32 °F - 16 °F 37% 30.22 in 15 mi NW 9.2 mph - -   Scattered Clouds
4:00 PM 32.0 °F 24.2 °F 15.8 °F 51% 30.22 in 15.0 mi NW 9.2 mph - N/A   Partly Cloudy
5:00 PM 32.0 °F 24.2 °F 15.8 °F 51% 30.23 in 15.0 mi NW 9.2 mph - N/A   Partly Cloudy
6:00 PM 28.4 °F 23.3 °F 15.8 °F 59% 30.25 in 15.0 mi NNE 4.6 mph - N/A   Clear
7:00 PM 28.4 °F 20.4 °F 15.8 °F 59% 30.26 in 15.0 mi North 8.1 mph - N/A   Clear
8:00 PM 26.6 °F 19.1 °F 14.0 °F 59% 30.26 in 15.0 mi North 6.9 mph - N/A   Clear
9:00 PM 26.6 °F 19.1 °F 12.2 °F 55% 30.27 in 15.0 mi NNE 6.9 mph - N/A   Clear
10:00 PM 25 °F - 11 °F 42% 30.28 in 15 mi NNW 9.2 mph - -  
10:00 PM 24.8 °F 15.3 °F 12.2 °F 59% 30.28 in 15.0 mi NNW 9.2 mph - N/A   Clear
11:00 PM 23.0 °F 15.8 °F 10.4 °F 59% 30.28 in 15.0 mi NNE 5.8 mph - N/A   Clear